Year,Month,Day,Hour,Minute,Value (Times are PST for temperature in C)
2017,01,04,00,00,-6.20
2017,01,04,00,01,-6.20
2017,01,04,00,02,-6.20
2017,01,04,00,03,-6.20
2017,01,04,00,04,-6.20
2017,01,04,00,05,-6.20
2017,01,04,00,06,-6.20
2017,01,04,00,07,-6.20
2017,01,04,00,08,-6.20
2017,01,04,00,09,-6.20
2017,01,04,00,10,-6.20
2017,01,04,00,11,-6.20
2017,01,04,00,12,-6.20
2017,01,04,00,13,-6.20
2017,01,04,00,14,-6.20
2017,01,04,00,15,-6.20
2017,01,04,00,16,-6.20
2017,01,04,00,17,-6.20
2017,01,04,00,18,-6.20
2017,01,04,00,19,-6.20
2017,01,04,00,20,-6.20
2017,01,04,00,21,-6.20
2017,01,04,00,22,-6.20
2017,01,04,00,23,-6.30
2017,01,04,00,24,-6.30
2017,01,04,00,25,-6.30
2017,01,04,00,26,-6.30
2017,01,04,00,27,-6.30
2017,01,04,00,28,-6.30
2017,01,04,00,29,-6.30
2017,01,04,00,30,-6.30
2017,01,04,00,31,-6.30
2017,01,04,00,32,-6.30
2017,01,04,00,33,-6.30
2017,01,04,00,34,-6.30
2017,01,04,00,35,-6.30
2017,01,04,00,36,-6.30
2017,01,04,00,37,-6.30
2017,01,04,00,38,-6.30
2017,01,04,00,39,-6.30
2017,01,04,00,40,-6.30
2017,01,04,00,41,-6.30
2017,01,04,00,42,-6.30
2017,01,04,00,43,-6.30
2017,01,04,00,44,-6.30
2017,01,04,00,45,-6.30
2017,01,04,00,46,-6.30
2017,01,04,00,47,-6.30
2017,01,04,00,48,-6.30
2017,01,04,00,49,-6.30
2017,01,04,00,50,-6.30
2017,01,04,00,51,-6.30
2017,01,04,00,52,-6.30
2017,01,04,00,53,-6.30
2017,01,04,00,54,-6.20
2017,01,04,00,55,-6.20
2017,01,04,00,56,-6.20
2017,01,04,00,57,-6.20
2017,01,04,00,58,-6.30
2017,01,04,00,59,-6.30
2017,01,04,01,00,-6.30
2017,01,04,01,01,-6.30
2017,01,04,01,02,-6.30
2017,01,04,01,03,-6.30
2017,01,04,01,04,-6.30
2017,01,04,01,05,-6.30
2017,01,04,01,06,-6.30
2017,01,04,01,07,-6.30
2017,01,04,01,08,-6.30
2017,01,04,01,09,-6.30
2017,01,04,01,10,-6.30
2017,01,04,01,11,-6.30
2017,01,04,01,12,-6.30
2017,01,04,01,13,-6.30
2017,01,04,01,14,-6.30
2017,01,04,01,15,-6.30
2017,01,04,01,16,-6.30
2017,01,04,01,17,-6.30
2017,01,04,01,18,-6.30
2017,01,04,01,19,-6.30
2017,01,04,01,20,-6.30
2017,01,04,01,21,-6.30
2017,01,04,01,22,-6.40
2017,01,04,01,23,-6.40
2017,01,04,01,24,-6.40
2017,01,04,01,25,-6.40
2017,01,04,01,26,-6.40
2017,01,04,01,27,-6.40
2017,01,04,01,28,-6.40
2017,01,04,01,29,-6.40
2017,01,04,01,30,-6.40
2017,01,04,01,31,-6.40
2017,01,04,01,32,-6.40
2017,01,04,01,33,-6.50
2017,01,04,01,34,-6.50
2017,01,04,01,35,-6.50
2017,01,04,01,36,-6.50
2017,01,04,01,37,-6.50
2017,01,04,01,38,-6.50
2017,01,04,01,39,-6.60
2017,01,04,01,40,-6.60
2017,01,04,01,41,-6.60
2017,01,04,01,42,-6.60
2017,01,04,01,43,-6.60
2017,01,04,01,44,-6.60
2017,01,04,01,45,-6.60
2017,01,04,01,46,-6.60
2017,01,04,01,47,-6.60
2017,01,04,01,48,-6.60
2017,01,04,01,49,-6.60
2017,01,04,01,50,-6.60
2017,01,04,01,51,-6.60
2017,01,04,01,52,-6.70
2017,01,04,01,53,-6.70
2017,01,04,01,54,-6.70
2017,01,04,01,55,-6.70
2017,01,04,01,56,-6.70
2017,01,04,01,57,-6.70
2017,01,04,01,58,-6.70
2017,01,04,01,59,-6.70
2017,01,04,02,00,-6.70
2017,01,04,02,01,-6.70
2017,01,04,02,02,-6.70
2017,01,04,02,03,-6.70
2017,01,04,02,04,-6.70
2017,01,04,02,05,-6.70
2017,01,04,02,06,-6.70
2017,01,04,02,07,-6.70
2017,01,04,02,08,-6.70
2017,01,04,02,09,-6.70
2017,01,04,02,10,-6.70
2017,01,04,02,11,-6.70
2017,01,04,02,12,-6.70
2017,01,04,02,13,-6.70
2017,01,04,02,14,-6.70
2017,01,04,02,15,-6.70
2017,01,04,02,16,-6.70
2017,01,04,02,17,-6.70
2017,01,04,02,18,-6.70
2017,01,04,02,19,-6.70
2017,01,04,02,20,-6.60
2017,01,04,02,21,-6.60
2017,01,04,02,22,-6.60
2017,01,04,02,23,-6.60
2017,01,04,02,24,-6.60
2017,01,04,02,25,-6.60
2017,01,04,02,26,-6.60
2017,01,04,02,27,-6.60
2017,01,04,02,28,-6.60
2017,01,04,02,29,-6.60
2017,01,04,02,30,-6.60
2017,01,04,02,31,-6.60
2017,01,04,02,32,-6.60
2017,01,04,02,33,-6.60
2017,01,04,02,34,-6.60
2017,01,04,02,35,-6.60
2017,01,04,02,36,-6.60
2017,01,04,02,37,-6.60
2017,01,04,02,38,-6.60
2017,01,04,02,39,-6.60
2017,01,04,02,40,-6.60
2017,01,04,02,41,-6.60
2017,01,04,02,42,-6.60
2017,01,04,02,43,-6.60
2017,01,04,02,44,-6.60
2017,01,04,02,45,-6.60
2017,01,04,02,46,-6.60
2017,01,04,02,47,-6.60
2017,01,04,02,48,-6.60
2017,01,04,02,49,-6.60
2017,01,04,02,50,-6.60
2017,01,04,02,51,-6.60
2017,01,04,02,52,-6.60
2017,01,04,02,53,-6.60
2017,01,04,02,54,-6.60
2017,01,04,02,55,-6.60
2017,01,04,02,56,-6.60
2017,01,04,02,57,-6.60
2017,01,04,02,58,-6.60
2017,01,04,02,59,-6.60
2017,01,04,03,00,-6.50
2017,01,04,03,01,-6.50
2017,01,04,03,02,-6.50
2017,01,04,03,03,-6.50
2017,01,04,03,04,-6.50
2017,01,04,03,05,-6.50
2017,01,04,03,06,-6.50
2017,01,04,03,07,-6.60
2017,01,04,03,08,-6.60
2017,01,04,03,09,-6.50
2017,01,04,03,10,-6.60
2017,01,04,03,11,-6.60
2017,01,04,03,12,-6.50
2017,01,04,03,13,-6.50
2017,01,04,03,14,-6.50
2017,01,04,03,15,-6.50
2017,01,04,03,16,-6.40
2017,01,04,03,17,-6.40
2017,01,04,03,18,-6.40
2017,01,04,03,19,-6.40
2017,01,04,03,20,-6.30
2017,01,04,03,21,-6.30
2017,01,04,03,22,-6.30
2017,01,04,03,23,-6.30
2017,01,04,03,24,-6.20
2017,01,04,03,25,-6.20
2017,01,04,03,26,-6.20
2017,01,04,03,27,-6.20
2017,01,04,03,28,-6.20
2017,01,04,03,29,-6.20
2017,01,04,03,30,-6.10
2017,01,04,03,31,-6.10
2017,01,04,03,32,-6.10
2017,01,04,03,33,-6.10
2017,01,04,03,34,-6.10
2017,01,04,03,35,-6.10
2017,01,04,03,36,-6.10
2017,01,04,03,37,-6.00
2017,01,04,03,38,-6.00
2017,01,04,03,39,-6.00
2017,01,04,03,40,-6.00
2017,01,04,03,41,-6.00
2017,01,04,03,42,-6.00
2017,01,04,03,43,-6.00
2017,01,04,03,44,-6.00
2017,01,04,03,45,-5.90
2017,01,04,03,46,-5.90
2017,01,04,03,47,-5.90
2017,01,04,03,48,-5.90
2017,01,04,03,49,-5.90
2017,01,04,03,50,-5.90
2017,01,04,03,51,-5.90
2017,01,04,03,52,-5.90
2017,01,04,03,53,-5.90
2017,01,04,03,54,-5.90
2017,01,04,03,55,-5.90
2017,01,04,03,56,-5.90
2017,01,04,03,57,-6.00
2017,01,04,03,58,-6.00
2017,01,04,03,59,-6.00
2017,01,04,04,00,-6.00
2017,01,04,04,01,-6.00
2017,01,04,04,02,-6.10
2017,01,04,04,03,-6.10
2017,01,04,04,04,-6.10
2017,01,04,04,05,-6.10
2017,01,04,04,06,-6.20
2017,01,04,04,07,-6.20
2017,01,04,04,08,-6.20
2017,01,04,04,09,-6.20
2017,01,04,04,10,-6.20
2017,01,04,04,11,-6.20
2017,01,04,04,12,-6.20
2017,01,04,04,13,-6.20
2017,01,04,04,14,-6.20
2017,01,04,04,15,-6.20
2017,01,04,04,16,-6.20
2017,01,04,04,17,-6.20
2017,01,04,04,18,-6.20
2017,01,04,04,19,-6.10
2017,01,04,04,20,-6.10
2017,01,04,04,21,-6.10
2017,01,04,04,22,-6.10
2017,01,04,04,23,-6.00
2017,01,04,04,24,-6.00
2017,01,04,04,25,-6.00
2017,01,04,04,26,-6.00
2017,01,04,04,27,-6.00
2017,01,04,04,28,-5.90
2017,01,04,04,29,-5.90
2017,01,04,04,30,-5.90
2017,01,04,04,31,-5.90
2017,01,04,04,32,-5.90
2017,01,04,04,33,-5.90
2017,01,04,04,34,-5.90
2017,01,04,04,35,-5.90
2017,01,04,04,36,-5.90
2017,01,04,04,37,-5.90
2017,01,04,04,38,-5.90
2017,01,04,04,39,-5.90
2017,01,04,04,40,-5.90
2017,01,04,04,41,-5.90
2017,01,04,04,42,-5.90
2017,01,04,04,43,-5.90
2017,01,04,04,44,-5.90
2017,01,04,04,45,-5.90
2017,01,04,04,46,-5.90
2017,01,04,04,47,-5.90
2017,01,04,04,48,-5.90
2017,01,04,04,49,-5.90
2017,01,04,04,50,-5.90
2017,01,04,04,51,-5.90
2017,01,04,04,52,-5.90
2017,01,04,04,53,-5.80
2017,01,04,04,54,-5.80
2017,01,04,04,55,-5.80
2017,01,04,04,56,-5.80
2017,01,04,04,57,-5.80
2017,01,04,04,58,-5.80
2017,01,04,04,59,-5.80
2017,01,04,05,00,-5.80
2017,01,04,05,01,-5.80
2017,01,04,05,02,-5.80
2017,01,04,05,03,-5.70
2017,01,04,05,04,-5.70
2017,01,04,05,05,-5.70
2017,01,04,05,06,-5.70
2017,01,04,05,07,-5.70
2017,01,04,05,08,-5.70
2017,01,04,05,09,-5.70
2017,01,04,05,10,-5.70
2017,01,04,05,11,-5.70
2017,01,04,05,12,-5.70
2017,01,04,05,13,-5.70
2017,01,04,05,14,-5.70
2017,01,04,05,15,-5.70
2017,01,04,05,16,-5.70
2017,01,04,05,17,-5.70
2017,01,04,05,18,-5.70
2017,01,04,05,19,-5.70
2017,01,04,05,20,-5.70
2017,01,04,05,21,-5.70
2017,01,04,05,22,-5.70
2017,01,04,05,23,-5.70
2017,01,04,05,24,-5.60
2017,01,04,05,25,-5.60
2017,01,04,05,26,-5.60
2017,01,04,05,27,-5.60
2017,01,04,05,28,-5.60
2017,01,04,05,29,-5.50
2017,01,04,05,30,-5.50
2017,01,04,05,31,-5.50
2017,01,04,05,32,-5.40
2017,01,04,05,33,-5.40
2017,01,04,05,34,-5.40
2017,01,04,05,35,-5.40
2017,01,04,05,36,-5.40
2017,01,04,05,37,-5.40
2017,01,04,05,38,-5.40
2017,01,04,05,39,-5.40
2017,01,04,05,40,-5.40
2017,01,04,05,41,-5.40
2017,01,04,05,42,-5.40
2017,01,04,05,43,-5.40
2017,01,04,05,44,-5.40
2017,01,04,05,45,-5.40
2017,01,04,05,46,-5.40
2017,01,04,05,47,-5.40
2017,01,04,05,48,-5.40
2017,01,04,05,49,-5.40
2017,01,04,05,50,-5.40
2017,01,04,05,51,-5.40
2017,01,04,05,52,-5.40
2017,01,04,05,53,-5.30
2017,01,04,05,54,-5.30
2017,01,04,05,55,-5.30
2017,01,04,05,56,-5.30
2017,01,04,05,57,-5.30
2017,01,04,05,58,-5.30
2017,01,04,05,59,-5.30
2017,01,04,06,00,-5.30
2017,01,04,06,01,-5.30
2017,01,04,06,02,-5.30
2017,01,04,06,03,-5.30
2017,01,04,06,04,-5.30
2017,01,04,06,05,-5.30
2017,01,04,06,06,-5.30
2017,01,04,06,07,-5.30
2017,01,04,06,08,-5.30
2017,01,04,06,09,-5.30
2017,01,04,06,10,-5.30
2017,01,04,06,11,-5.30
2017,01,04,06,12,-5.30
2017,01,04,06,13,-5.30
2017,01,04,06,14,-5.30
2017,01,04,06,15,-5.40
2017,01,04,06,16,-5.40
2017,01,04,06,17,-5.40
2017,01,04,06,18,-5.40
2017,01,04,06,19,-5.40
2017,01,04,06,20,-5.40
2017,01,04,06,21,-5.40
2017,01,04,06,22,-5.40
2017,01,04,06,23,-5.30
2017,01,04,06,24,-5.30
2017,01,04,06,25,-5.40
2017,01,04,06,26,-5.40
2017,01,04,06,27,-5.40
2017,01,04,06,28,-5.40
2017,01,04,06,29,-5.40
2017,01,04,06,30,-5.40
2017,01,04,06,31,-5.50
2017,01,04,06,32,-5.50
2017,01,04,06,33,-5.50
2017,01,04,06,34,-5.50
2017,01,04,06,35,-5.50
2017,01,04,06,36,-5.60
2017,01,04,06,37,-5.60
2017,01,04,06,38,-5.60
2017,01,04,06,39,-5.60
2017,01,04,06,40,-5.60
2017,01,04,06,41,-5.60
2017,01,04,06,42,-5.60
2017,01,04,06,43,-5.60
2017,01,04,06,44,-5.60
2017,01,04,06,45,-5.60
2017,01,04,06,46,-5.60
2017,01,04,06,47,-5.60
2017,01,04,06,48,-5.60
2017,01,04,06,49,-5.60
2017,01,04,06,50,-5.60
2017,01,04,06,51,-5.60
2017,01,04,06,52,-5.60
2017,01,04,06,53,-5.50
2017,01,04,06,54,-5.50
2017,01,04,06,55,-5.50
2017,01,04,06,56,-5.50
2017,01,04,06,57,-5.50
2017,01,04,06,58,-5.50
2017,01,04,06,59,-5.50
2017,01,04,07,00,-5.50
2017,01,04,07,01,-5.50
2017,01,04,07,02,-5.50
2017,01,04,07,03,-5.60
2017,01,04,07,04,-5.60
2017,01,04,07,05,-5.60
2017,01,04,07,06,-5.60
2017,01,04,07,07,-5.60
2017,01,04,07,08,-5.60
2017,01,04,07,09,-5.60
2017,01,04,07,10,-5.60
2017,01,04,07,11,-5.60
2017,01,04,07,12,-5.60
2017,01,04,07,13,-5.60
2017,01,04,07,14,-5.60
2017,01,04,07,15,-5.60
2017,01,04,07,16,-5.60
2017,01,04,07,17,-5.60
2017,01,04,07,18,-5.60
2017,01,04,07,19,-5.60
2017,01,04,07,20,-5.50
2017,01,04,07,21,-5.50
2017,01,04,07,22,-5.50
2017,01,04,07,23,-5.40
2017,01,04,07,24,-5.40
2017,01,04,07,25,-5.40
2017,01,04,07,26,-5.40
2017,01,04,07,27,-5.40
2017,01,04,07,28,-5.30
2017,01,04,07,29,-5.30
2017,01,04,07,30,-5.30
2017,01,04,07,31,-5.30
2017,01,04,07,32,-5.30
2017,01,04,07,33,-5.30
2017,01,04,07,34,-5.30
2017,01,04,07,35,-5.30
2017,01,04,07,36,-5.30
2017,01,04,07,37,-5.30
2017,01,04,07,38,-5.20
2017,01,04,07,39,-5.20
2017,01,04,07,40,-5.20
2017,01,04,07,41,-5.20
2017,01,04,07,42,-5.10
2017,01,04,07,43,-5.10
2017,01,04,07,44,-5.10
2017,01,04,07,45,-5.10
2017,01,04,07,46,-5.10
2017,01,04,07,47,-5.00
2017,01,04,07,48,-5.00
2017,01,04,07,49,-5.00
2017,01,04,07,50,-5.00
2017,01,04,07,51,-4.90
2017,01,04,07,52,-4.90
2017,01,04,07,53,-4.90
2017,01,04,07,54,-4.90
2017,01,04,07,55,-4.90
2017,01,04,07,56,-4.90
2017,01,04,07,57,-4.90
2017,01,04,07,58,-4.90
2017,01,04,07,59,-4.90
2017,01,04,08,00,-4.90
2017,01,04,08,01,-4.90
2017,01,04,08,02,-4.80
2017,01,04,08,03,-4.80
2017,01,04,08,04,-4.80
2017,01,04,08,05,-4.80
2017,01,04,08,06,-4.80
2017,01,04,08,07,-4.80
2017,01,04,08,08,-4.70
2017,01,04,08,09,-4.70
2017,01,04,08,10,-4.70
2017,01,04,08,11,-4.70
2017,01,04,08,12,-4.60
2017,01,04,08,13,-4.60
2017,01,04,08,14,-4.60
2017,01,04,08,15,-4.60
2017,01,04,08,16,-4.50
2017,01,04,08,17,-4.50
2017,01,04,08,18,-4.50
2017,01,04,08,19,-4.50
2017,01,04,08,20,-4.50
2017,01,04,08,21,-4.50
2017,01,04,08,22,-4.40
2017,01,04,08,23,-4.40
2017,01,04,08,24,-4.40
2017,01,04,08,25,-4.40
2017,01,04,08,26,-4.40
2017,01,04,08,27,-4.50
2017,01,04,08,28,-4.50
2017,01,04,08,29,-4.50
2017,01,04,08,30,-4.50
2017,01,04,08,31,-4.50
2017,01,04,08,32,-4.50
2017,01,04,08,33,-4.50
2017,01,04,08,34,-4.50
2017,01,04,08,35,-4.50
2017,01,04,08,36,-4.60
2017,01,04,08,37,-4.60
2017,01,04,08,38,-4.60
2017,01,04,08,39,-4.60
2017,01,04,08,40,-4.60
2017,01,04,08,41,-4.60
2017,01,04,08,42,-4.60
2017,01,04,08,43,-4.60
2017,01,04,08,44,-4.60
2017,01,04,08,45,-4.60
2017,01,04,08,46,-4.60
2017,01,04,08,47,-4.60
2017,01,04,08,48,-4.60
2017,01,04,08,49,-4.60
2017,01,04,08,50,-4.60
2017,01,04,08,51,-4.60
2017,01,04,08,52,-4.60
2017,01,04,08,53,-4.60
2017,01,04,08,54,-4.60
2017,01,04,08,55,-4.60
2017,01,04,08,56,-4.60
2017,01,04,08,57,-4.60
2017,01,04,08,58,-4.60
2017,01,04,08,59,-4.60
2017,01,04,09,00,-4.60
2017,01,04,09,01,-4.60
2017,01,04,09,02,-4.60
2017,01,04,09,03,-4.60
2017,01,04,09,04,-4.60
2017,01,04,09,05,-4.60
2017,01,04,09,06,-4.60
2017,01,04,09,07,-4.60
2017,01,04,09,08,-4.60
2017,01,04,09,09,-4.60
2017,01,04,09,10,-4.60
2017,01,04,09,11,-4.60
2017,01,04,09,12,-4.70
2017,01,04,09,13,-4.60
2017,01,04,09,14,-4.60
2017,01,04,09,15,-4.60
2017,01,04,09,16,-4.60
2017,01,04,09,17,-4.60
2017,01,04,09,18,-4.60
2017,01,04,09,19,-4.60
2017,01,04,09,20,-4.60
2017,01,04,09,21,-4.60
2017,01,04,09,22,-4.60
2017,01,04,09,23,-4.60
2017,01,04,09,24,-4.60
2017,01,04,09,25,-4.60
2017,01,04,09,26,-4.60
2017,01,04,09,27,-4.60
2017,01,04,09,28,-4.60
2017,01,04,09,29,-4.60
2017,01,04,09,30,-4.60
2017,01,04,09,31,-4.60
2017,01,04,09,32,-4.50
2017,01,04,09,33,-4.50
2017,01,04,09,34,-4.50
2017,01,04,09,35,-4.50
2017,01,04,09,36,-4.40
2017,01,04,09,37,-4.40
2017,01,04,09,38,-4.40
2017,01,04,09,39,-4.40
2017,01,04,09,40,-4.40
2017,01,04,09,41,-4.40
2017,01,04,09,42,-4.30
2017,01,04,09,43,-4.30
2017,01,04,09,44,-4.30
2017,01,04,09,45,-4.30
2017,01,04,09,46,-4.30
2017,01,04,09,47,-4.30
2017,01,04,09,48,-4.20
2017,01,04,09,49,-4.20
2017,01,04,09,50,-4.20
2017,01,04,09,51,-4.20
2017,01,04,09,52,-4.20
2017,01,04,09,53,-4.20
2017,01,04,09,54,-4.10
2017,01,04,09,55,-4.10
2017,01,04,09,56,-4.10
2017,01,04,09,57,-4.10
2017,01,04,09,58,-4.10
2017,01,04,09,59,-4.00
2017,01,04,10,00,-4.00
2017,01,04,10,01,-4.00
2017,01,04,10,02,-3.90
2017,01,04,10,03,-3.90
2017,01,04,10,04,-3.90
2017,01,04,10,05,-3.80
2017,01,04,10,06,-3.80
2017,01,04,10,07,-3.70
2017,01,04,10,08,-3.70
2017,01,04,10,09,-3.70
2017,01,04,10,10,-3.70
2017,01,04,10,11,-3.70
2017,01,04,10,12,-3.60
2017,01,04,10,13,-3.60
2017,01,04,10,14,-3.60
2017,01,04,10,15,-3.60
2017,01,04,10,16,-3.60
2017,01,04,10,17,-3.50
2017,01,04,10,18,-3.50
2017,01,04,10,19,-3.50
2017,01,04,10,20,-3.40
2017,01,04,10,21,-3.40
2017,01,04,10,22,-3.40
2017,01,04,10,23,-3.30
2017,01,04,10,24,-3.30
2017,01,04,10,25,-3.30
2017,01,04,10,26,-3.20
2017,01,04,10,27,-3.20
2017,01,04,10,28,-3.20
2017,01,04,10,29,-3.10
2017,01,04,10,30,-3.10
2017,01,04,10,31,-3.00
2017,01,04,10,32,-3.00
2017,01,04,10,33,-2.90
2017,01,04,10,34,-2.90
2017,01,04,10,35,-2.90
2017,01,04,10,36,-2.80
2017,01,04,10,37,-2.80
2017,01,04,10,38,-2.80
2017,01,04,10,39,-2.70
2017,01,04,10,40,-2.70
2017,01,04,10,41,-2.60
2017,01,04,10,42,-2.60
2017,01,04,10,43,-2.60
2017,01,04,10,44,-2.50
2017,01,04,10,45,-2.50
2017,01,04,10,46,-2.40
2017,01,04,10,47,-2.40
2017,01,04,10,48,-2.30
2017,01,04,10,49,-2.30
2017,01,04,10,50,-2.30
2017,01,04,10,51,-2.20
2017,01,04,10,52,-2.20
2017,01,04,10,53,-2.20
2017,01,04,10,54,-2.20
2017,01,04,10,55,-2.10
2017,01,04,10,56,-2.10
2017,01,04,10,57,-2.00
2017,01,04,10,58,-2.00
2017,01,04,10,59,-1.90
2017,01,04,11,00,-1.90
2017,01,04,11,01,-1.90
2017,01,04,11,02,-1.80
2017,01,04,11,03,-1.80
2017,01,04,11,04,-1.70
2017,01,04,11,05,-1.70
2017,01,04,11,06,-1.60
2017,01,04,11,07,-1.60
2017,01,04,11,08,-1.50
2017,01,04,11,09,-1.40
2017,01,04,11,10,-1.40
2017,01,04,11,11,-1.30
2017,01,04,11,12,-1.30
2017,01,04,11,13,-1.20
2017,01,04,11,14,-1.20
2017,01,04,11,15,-1.10
2017,01,04,11,16,-1.10
2017,01,04,11,17,-1.00
2017,01,04,11,18,-1.00
2017,01,04,11,19,-1.00
2017,01,04,11,20,-0.90
2017,01,04,11,21,-0.80
2017,01,04,11,22,-0.80
2017,01,04,11,23,-0.80
2017,01,04,11,24,-0.70
2017,01,04,11,25,-0.70
2017,01,04,11,26,-0.60
2017,01,04,11,27,-0.50
2017,01,04,11,28,-0.30
2017,01,04,11,29,-0.20
2017,01,04,11,30,-0.10
2017,01,04,11,31,0.00
2017,01,04,11,32,0.00
2017,01,04,11,33,0.10
2017,01,04,11,34,0.20
2017,01,04,11,35,0.30
2017,01,04,11,36,0.30
2017,01,04,11,37,0.40
2017,01,04,11,38,0.60
2017,01,04,11,39,0.70
2017,01,04,11,40,0.80
2017,01,04,11,41,0.90
2017,01,04,11,42,0.90
2017,01,04,11,43,1.00
2017,01,04,11,44,1.10
2017,01,04,11,45,1.10
2017,01,04,11,46,1.20
2017,01,04,11,47,1.20
2017,01,04,11,48,1.30
2017,01,04,11,49,1.30
2017,01,04,11,50,1.30
2017,01,04,11,51,1.40
2017,01,04,11,52,1.40
2017,01,04,11,53,1.40
2017,01,04,11,54,1.50
2017,01,04,11,55,1.60
2017,01,04,11,56,1.60
2017,01,04,11,57,1.60
2017,01,04,11,58,1.70
2017,01,04,11,59,1.70
2017,01,04,12,00,1.70
2017,01,04,12,01,1.70
2017,01,04,12,02,1.70
2017,01,04,12,03,1.70
2017,01,04,12,04,1.70
2017,01,04,12,05,1.70
2017,01,04,12,06,1.70
2017,01,04,12,07,1.80
2017,01,04,12,08,1.80
2017,01,04,12,09,1.80
2017,01,04,12,10,1.80
2017,01,04,12,11,1.80
2017,01,04,12,12,1.90
2017,01,04,12,13,1.90
2017,01,04,12,14,1.90
2017,01,04,12,15,1.90
2017,01,04,12,16,1.90
2017,01,04,12,17,1.90
2017,01,04,12,18,1.90
2017,01,04,12,19,1.90
2017,01,04,12,20,1.90
2017,01,04,12,21,2.00
2017,01,04,12,22,2.00
2017,01,04,12,23,2.10
2017,01,04,12,24,2.10
2017,01,04,12,25,2.10
2017,01,04,12,26,2.10
2017,01,04,12,27,2.10
2017,01,04,12,28,2.20
2017,01,04,12,29,2.20
2017,01,04,12,30,2.20
2017,01,04,12,31,2.20
2017,01,04,12,32,2.30
2017,01,04,12,33,2.30
2017,01,04,12,34,2.30
2017,01,04,12,35,2.30
2017,01,04,12,36,2.30
2017,01,04,12,37,2.30
2017,01,04,12,38,2.30
2017,01,04,12,39,2.30
2017,01,04,12,40,2.30
2017,01,04,12,41,2.30
2017,01,04,12,42,2.30
2017,01,04,12,43,2.30
2017,01,04,12,44,2.30
2017,01,04,12,45,2.40
2017,01,04,12,46,2.40
2017,01,04,12,47,2.40
2017,01,04,12,48,2.40
2017,01,04,12,49,2.40
2017,01,04,12,50,2.40
2017,01,04,12,51,2.50
2017,01,04,12,52,2.40
2017,01,04,12,53,2.50
2017,01,04,12,54,2.50
2017,01,04,12,55,2.50
2017,01,04,12,56,2.50
2017,01,04,12,57,2.50
2017,01,04,12,58,2.50
2017,01,04,12,59,2.50
2017,01,04,13,00,2.50
2017,01,04,13,01,2.60
2017,01,04,13,02,2.60
2017,01,04,13,03,2.60
2017,01,04,13,04,2.60
2017,01,04,13,05,2.60
2017,01,04,13,06,2.70
2017,01,04,13,07,2.70
2017,01,04,13,08,2.80
2017,01,04,13,09,2.80
2017,01,04,13,10,2.90
2017,01,04,13,11,2.90
2017,01,04,13,12,2.90
2017,01,04,13,13,3.00
2017,01,04,13,14,3.00
2017,01,04,13,15,3.10
2017,01,04,13,16,3.10
2017,01,04,13,17,3.10
2017,01,04,13,18,3.10
2017,01,04,13,19,3.20
2017,01,04,13,20,3.20
2017,01,04,13,21,3.20
2017,01,04,13,22,3.20
2017,01,04,13,23,3.30
2017,01,04,13,24,3.30
2017,01,04,13,25,3.30
2017,01,04,13,26,3.40
2017,01,04,13,27,3.40
2017,01,04,13,28,3.40
2017,01,04,13,29,3.40
2017,01,04,13,30,3.50
2017,01,04,13,31,3.50
2017,01,04,13,32,3.50
2017,01,04,13,33,3.50
2017,01,04,13,34,3.40
2017,01,04,13,35,3.40
2017,01,04,13,36,3.40
2017,01,04,13,37,3.40
2017,01,04,13,38,3.40
2017,01,04,13,39,3.30
2017,01,04,13,40,3.30
2017,01,04,13,41,3.30
2017,01,04,13,42,3.30
2017,01,04,13,43,3.30
2017,01,04,13,44,3.30
2017,01,04,13,45,3.30
2017,01,04,13,46,3.40
2017,01,04,13,47,3.40
2017,01,04,13,48,3.40
2017,01,04,13,49,3.40
2017,01,04,13,50,3.40
2017,01,04,13,51,3.40
2017,01,04,13,52,3.40
2017,01,04,13,53,3.40
2017,01,04,13,54,3.40
2017,01,04,13,55,3.40
2017,01,04,13,56,3.30
2017,01,04,13,57,3.30
2017,01,04,13,58,3.30
2017,01,04,13,59,3.30
2017,01,04,14,00,3.30
2017,01,04,14,01,3.30
2017,01,04,14,02,3.20
2017,01,04,14,03,3.20
2017,01,04,14,04,3.20
2017,01,04,14,05,3.20
2017,01,04,14,06,3.20
2017,01,04,14,07,3.20
2017,01,04,14,08,3.20
2017,01,04,14,09,3.10
2017,01,04,14,10,3.10
2017,01,04,14,11,3.10
2017,01,04,14,12,3.10
2017,01,04,14,13,3.10
2017,01,04,14,14,3.10
2017,01,04,14,15,3.10
2017,01,04,14,16,3.10
2017,01,04,14,17,3.10
2017,01,04,14,18,3.10
2017,01,04,14,19,3.10
2017,01,04,14,20,3.10
2017,01,04,14,21,3.10
2017,01,04,14,22,3.10
2017,01,04,14,23,3.10
2017,01,04,14,24,3.10
2017,01,04,14,25,3.10
2017,01,04,14,26,3.10
2017,01,04,14,27,3.10
2017,01,04,14,28,3.10
2017,01,04,14,29,3.10
2017,01,04,14,30,3.10
2017,01,04,14,31,3.10
2017,01,04,14,32,3.00
2017,01,04,14,33,3.00
2017,01,04,14,34,3.00
2017,01,04,14,35,3.00
2017,01,04,14,36,3.00
2017,01,04,14,37,3.00
2017,01,04,14,38,3.00
2017,01,04,14,39,3.00
2017,01,04,14,40,2.90
2017,01,04,14,41,2.90
2017,01,04,14,42,2.90
2017,01,04,14,43,2.90
2017,01,04,14,44,2.90
2017,01,04,14,45,2.90
2017,01,04,14,46,2.90
2017,01,04,14,47,2.90
2017,01,04,14,48,2.90
2017,01,04,14,49,2.80
2017,01,04,14,50,2.80
2017,01,04,14,51,2.80
2017,01,04,14,52,2.80
2017,01,04,14,53,2.80
2017,01,04,14,54,2.80
2017,01,04,14,55,2.80
2017,01,04,14,56,2.80
2017,01,04,14,57,2.70
2017,01,04,14,58,2.70
2017,01,04,14,59,2.70
2017,01,04,15,00,2.70
2017,01,04,15,01,2.70
2017,01,04,15,02,2.70
2017,01,04,15,03,2.70
2017,01,04,15,04,2.70
2017,01,04,15,05,2.70
2017,01,04,15,06,2.70
2017,01,04,15,07,2.70
2017,01,04,15,08,2.70
2017,01,04,15,09,2.60
2017,01,04,15,10,2.60
2017,01,04,15,11,2.60
2017,01,04,15,12,2.60
2017,01,04,15,13,2.60
2017,01,04,15,14,2.50
2017,01,04,15,15,2.50
2017,01,04,15,16,2.50
2017,01,04,15,17,2.50
2017,01,04,15,18,2.50
2017,01,04,15,19,2.40
2017,01,04,15,20,2.40
2017,01,04,15,21,2.40
2017,01,04,15,22,2.40
2017,01,04,15,23,2.40
2017,01,04,15,24,2.40
2017,01,04,15,25,2.40
2017,01,04,15,26,2.40
2017,01,04,15,27,2.40
2017,01,04,15,28,2.40
2017,01,04,15,29,2.30
2017,01,04,15,30,2.30
2017,01,04,15,31,2.30
2017,01,04,15,32,2.30
2017,01,04,15,33,2.30
2017,01,04,15,34,2.20
2017,01,04,15,35,2.20
2017,01,04,15,36,2.20
2017,01,04,15,37,2.20
2017,01,04,15,38,2.10
2017,01,04,15,39,2.10
2017,01,04,15,40,2.10
2017,01,04,15,41,2.10
2017,01,04,15,42,2.00
2017,01,04,15,43,2.00
2017,01,04,15,44,1.90
2017,01,04,15,45,1.90
2017,01,04,15,46,1.90
2017,01,04,15,47,1.90
2017,01,04,15,48,1.80
2017,01,04,15,49,1.80
2017,01,04,15,50,1.80
2017,01,04,15,51,1.80
2017,01,04,15,52,1.70
2017,01,04,15,53,1.70
2017,01,04,15,54,1.70
2017,01,04,15,55,1.70
2017,01,04,15,56,1.60
2017,01,04,15,57,1.60
2017,01,04,15,58,1.60
2017,01,04,15,59,1.60
2017,01,04,16,00,1.50
2017,01,04,16,01,1.50
2017,01,04,16,02,1.50
2017,01,04,16,03,1.40
2017,01,04,16,04,1.40
2017,01,04,16,05,1.40
2017,01,04,16,06,1.30
2017,01,04,16,07,1.30
2017,01,04,16,08,1.30
2017,01,04,16,09,1.30
2017,01,04,16,10,1.20
2017,01,04,16,11,1.20
2017,01,04,16,12,1.20
2017,01,04,16,13,1.10
2017,01,04,16,14,1.10
2017,01,04,16,15,1.10
2017,01,04,16,16,1.00
2017,01,04,16,17,1.00
2017,01,04,16,18,1.00
2017,01,04,16,19,0.90
2017,01,04,16,20,0.90
2017,01,04,16,21,0.80
2017,01,04,16,22,0.80
2017,01,04,16,23,0.70
2017,01,04,16,24,0.70
2017,01,04,16,25,0.60
2017,01,04,16,26,0.60
2017,01,04,16,27,0.50
2017,01,04,16,28,0.50
2017,01,04,16,29,0.40
2017,01,04,16,30,0.40
2017,01,04,16,31,0.30
2017,01,04,16,32,0.30
2017,01,04,16,33,0.20
2017,01,04,16,34,0.20
2017,01,04,16,35,0.10
2017,01,04,16,36,0.10
2017,01,04,16,37,0.00
2017,01,04,16,38,0.00
2017,01,04,16,39,-0.10
2017,01,04,16,40,-0.10
2017,01,04,16,41,-0.20
2017,01,04,16,42,-0.20
2017,01,04,16,43,-0.20
2017,01,04,16,44,-0.30
2017,01,04,16,45,-0.30
2017,01,04,16,46,-0.40
2017,01,04,16,47,-0.50
2017,01,04,16,48,-0.50
2017,01,04,16,49,-0.60
2017,01,04,16,50,-0.70
2017,01,04,16,51,-0.70
2017,01,04,16,52,-0.80
2017,01,04,16,53,-0.80
2017,01,04,16,54,-0.80
2017,01,04,16,55,-0.90
2017,01,04,16,56,-0.90
2017,01,04,16,57,-1.00
2017,01,04,16,58,-1.00
2017,01,04,16,59,-1.00
2017,01,04,17,00,-1.10
2017,01,04,17,01,-1.10
2017,01,04,17,02,-1.20
2017,01,04,17,03,-1.20
2017,01,04,17,04,-1.20
2017,01,04,17,05,-1.20
2017,01,04,17,06,-1.20
2017,01,04,17,07,-1.30
2017,01,04,17,08,-1.30
2017,01,04,17,09,-1.30
2017,01,04,17,10,-1.30
2017,01,04,17,11,-1.30
2017,01,04,17,12,-1.30
2017,01,04,17,13,-1.30
2017,01,04,17,14,-1.30
2017,01,04,17,15,-1.30
2017,01,04,17,16,-1.30
2017,01,04,17,17,-1.30
2017,01,04,17,18,-1.30
2017,01,04,17,19,-1.30
2017,01,04,17,20,-1.30
2017,01,04,17,21,-1.40
2017,01,04,17,22,-1.40
2017,01,04,17,23,-1.40
2017,01,04,17,24,-1.40
2017,01,04,17,25,-1.40
2017,01,04,17,26,-1.40
2017,01,04,17,27,-1.40
2017,01,04,17,28,-1.40
2017,01,04,17,29,-1.40
2017,01,04,17,30,-1.40
2017,01,04,17,31,-1.40
2017,01,04,17,32,-1.40